Location: *
(40.1000°N, 45.0500°E)
Time: 15:16:08
(UTC+00:00)

Daily predictions for brighter satellites

Satellite Brightness Start Highest point End
(mag) Time Altitude Azimuth Time Altitude Azimuth Time Altitude Azimuth
Cosmos 389 Rocket 3.9 15:20:14 10° NNE 15:22:41 18° ENE 15:25:08 10° ESE
Cosmos 1980 4.3 15:17:29 10° N 15:22:42 37° ENE 15:27:53 10° SE
Cosmos 1441 Rocket 3.1 15:19:29 10° S 15:23:16 75° E 15:27:02 10° NNE
PSLV R/B 2.6 15:21:12 10° WSW 15:23:52 75° SSE 15:26:32 10° E
Cosmos 2074 Rocket 4.0 15:18:23 10° N 15:24:39 87° E 15:30:51 10° S
Cosmos 1624 Rocket 4.5 15:20:46 10° SSE 15:25:31 38° ESE 15:30:18 10° NE
Cosmos 1939 Rocket 3.6 15:22:16 10° SE 15:25:39 30° ENE 15:29:05 10° N
ISS -3.2 15:26:45 10° WSW 15:30:01 57° NW 15:33:18 10° NE
USA 116 3.5 15:26:27 10° N 15:30:07 84° WNW 15:33:25 10° SSW
USA 186 4.0 15:30:04 10° E 15:31:03 11° ENE 15:32:01 10° NE
Orbus 7S? 4.1 15:29:06 10° SSW 15:32:44 67° SE 15:40:56 10° NE
Okean 1 Rocket 3.0 15:32:36 10° S 15:36:56 85° E 15:41:19 10° N
Cosmos 1544 3.3 15:34:09 10° SSW 15:37:43 75° W 15:41:21 10° N
Cosmos 2341 Rocket 4.4 15:34:11 10° N 15:40:00 40° ENE 15:45:46 10° SE
Cosmos 1025 Rocket 3.7 15:35:58 10° NNW 15:40:10 57° W 15:44:20 10° S
BREEZE M DEB (TANK) 3.9 15:39:02 10° NW 15:40:23 14° N 15:42:08 10° NE
Cosmos 2219 Rocket 2.6 15:36:15 10° NNW 15:41:48 66° WSW 15:47:21 10° S
SL-16 R/B 3.5 15:41:23 10° N 15:45:42 22° NE 15:48:54 14° E
NOSS 0 Rocket 3.9 15:39:30 10° NNW 15:45:45 78° ENE 15:51:58 10° SSE
Lacrosse 5 3.4 15:45:33 10° SSE 15:48:36 16° ESE 15:49:49 15° ESE
NOAA 11 4.2 15:47:26 10° SSE 15:52:53 70° ENE 15:58:21 10° N
Cosmos 2154 Rocket 4.0 15:47:47 10° N 15:54:02 88° E 16:00:15 10° S
Cosmos 1707 2.6 15:52:51 10° N 15:56:47 79° E 16:00:41 10° S
Cosmos 2082 4.1 15:52:28 10° S 15:57:46 40° ESE 16:03:05 10° NE
Cosmos 1371 Rocket 4.0 15:52:34 10° SSW 15:57:52 90° ESE 16:03:16 10° NNE
SL-8 Rocket 4.4 15:52:10 10° N 15:57:53 38° ENE 16:03:33 10° SE
ARGOS 4.4 15:57:33 17° E 15:59:50 22° ENE 16:03:54 10° NNE
SPOT 3 Rocket 4.4 15:57:59 16° ESE 16:01:14 30° ENE 16:05:42 10° N
FAST 4.4 15:58:25 10° S 16:01:32 71° E 16:04:09 10° NNE
IRS-1A Rocket 4.2 15:56:36 10° SSE 16:02:16 71° ENE 16:07:52 10° N
YAOGAN 1 4.1 16:00:54 10° SSW 16:04:56 39° W 16:09:00 10° NNW
Meteor 2-5 Rocket 4.3 15:59:29 10° N 16:04:57 39° ENE 16:09:35 14° SE
COSMOS 2428 4.1 16:00:30 10° NW 16:05:46 40° WSW 16:11:01 10° S
Meteor 1-4 Rocket 2.6 16:04:11 10° N 16:07:36 50° E 16:09:44 20° SSE
Cosmos 1452 Rocket 4.1 16:03:57 10° SSE 16:08:34 32° E 16:13:11 10° NE
GP-B 4.0 16:06:28 10° N 16:10:46 51° W 16:15:04 10° SSW
Resurs 01 Rocket 3.6 16:11:19 14° NE 16:11:19 14° NE 16:13:03 10° NNE
Cosmos 676 Rocket 4.3 16:06:20 10° N 16:11:22 45° ENE 16:14:22 22° SE
Cosmos 2227 Rocket 2.1 16:06:01 10° SSW 16:11:40 85° ESE 16:17:22 10° NNE
Cosmos 1023 Rocket 4.5 16:06:42 10° N 16:11:46 57° ENE 16:15:32 17° SE
Cosmos 1892 Rocket 3.5 16:09:07 10° N 16:13:31 62° E 16:17:49 10° SSE
RESURS DK-1 4.4 16:12:37 10° NNE 16:14:32 13° NE 16:14:32 13° NE
ADEOS Rocket 3.9 16:11:42 10° NNE 16:18:48 41° E 16:26:02 10° SSE
Cosmos 2219 4.2 16:13:21 10° SW 16:18:55 50° WNW 16:24:30 10° NNE
FREGAT/IRIS 2.2 16:20:26 52° SSE 16:20:59 76° ENE 16:23:48 10° N
Cosmos 2297 Rocket 2.4 16:16:03 10° SSW 16:21:42 76° WNW 16:27:23 10° NNE
NOSS 3-4 (A) 4.3 16:14:40 10° NW 16:21:44 63° WSW 16:29:25 10° SSE
NOSS 3-4 (C) 4.3 16:14:46 10° NW 16:21:50 63° WSW 16:29:31 10° SSE
SL-4 R/B 3.9 16:19:31 10° S 16:20:20 14° S 16:20:20 14° S
CZ-2C R/B 3.5 16:19:55 10° NNE 16:24:20 70° E 16:28:45 10° S
SJ-11-01 4.2 16:21:43 17° SSE 16:25:23 67° ENE 16:30:06 10° N
Cosmos 1190 Rocket 4.1 16:21:53 10° NNW 16:27:11 78° WSW 16:32:16 11° SSE
Cosmos 614 Rocket 4.2 16:22:33 10° NNW 16:27:45 71° WSW 16:32:51 10° S
H-2A R/B 2.4 16:28:38 34° ESE 16:29:52 40° ENE 16:34:36 10° N
SJ-6B 2.9 16:29:52 41° SE 16:30:58 57° ENE 16:34:58 10° N
Cosmos 1766 3.2 16:32:25 32° SSE 16:34:04 61° E 16:37:56 10° NNE
Ariane Rocket 4.1 16:33:54 10° S 16:38:42 44° W 16:43:33 10° NNW
Okean 1-7 Rocket 4.0 16:34:47 10° NNW 16:39:12 65° W 16:43:39 10° S
In-Cosmos 22 4.4 16:34:19 10° NNW 16:39:43 70° W 16:45:13 10° S
Cosmos 405 Rocket 4.4 16:43:50 10° SW 16:47:11 33° WNW 16:50:36 10° N
Cosmos 1544 Rocket 3.7 16:43:58 10° SSW 16:48:25 76° W 16:52:54 10° N
Cosmos 1455 Rocket 3.6 16:44:04 10° SSW 16:48:26 60° W 16:52:51 10° N
ASTEX 1 4.4 16:46:21 10° N 16:51:01 46° W 16:55:41 10° SSW
Lacrosse 5 rocket 3.5 16:51:12 10° W 16:54:02 21° NNW 16:56:45 11° NNE
Cosmos 2237 Rocket 3.4 16:51:04 10° NW 16:56:21 41° WSW 17:01:36 10° S
Cosmos 1674 3.1 16:53:29 10° N 16:56:22 52° N 16:56:22 52° N
Cosmos 1420 Rocket 4.2 16:52:58 10° SSW 16:58:14 72° WNW 17:03:35 10° NNE
USA 186 3.0 17:01:27 41° WSW 17:01:33 41° W 17:04:49 10° NNW
DELTA 2 R/B (1) 3.4 16:57:41 10° W 17:03:20 87° S 17:04:04 68° E
ATLAS CENTAUR R/B 4.0 16:58:42 10° SSW 16:59:10 13° SSW 16:59:10 13° SSW
Cosmos 1437 Rocket 3.2 17:01:02 10° NNW 17:04:19 56° WNW 17:04:19 56° WNW
ISS -1.1 17:05:16 10° NW 17:07:18 15° NNW 17:07:37 15° N
Cosmos 1140 Rocket 4.5 17:02:46 10° NNW 17:07:39 43° WSW 17:10:32 22° SSW
Meteor 1-24 Rocket 3.8 17:04:15 10° N 17:10:09 84° W 17:12:09 45° S
Cosmos 1626 Rocket 4.0 17:06:31 10° N 17:09:53 54° N 17:09:53 54° N
ERBS 4.2 17:08:15 10° NW 17:10:02 29° NW 17:10:02 29° NW
Cosmos 1741 Rocket 4.3 17:11:19 10° NNW 17:15:52 56° NNE 17:15:52 56° NNE
GEOS 3 Rocket 3.9 17:24:46 55° SW 17:25:05 56° WSW 17:30:07 10° NW
Nadezhda 3 Rocket 4.1 17:26:22 60° NE 17:26:22 60° NE 17:31:35 10° NNE
SL-16 R/B 2.6 17:24:39 10° NNW 17:30:13 58° WSW 17:30:49 55° SW
Lacrosse 5 2.8 17:25:55 10° SW 17:29:07 40° SW 17:29:07 40° SW
ARGOS 3.9 17:39:04 45° WSW 17:39:43 48° W 17:44:56 10° NNW
Cosmos 1821 Rocket 4.3 17:36:50 10° N 17:41:37 56° N 17:41:37 56° N
Resurs 01 Rocket 3.4 17:48:55 28° NNW 17:48:55 28° NNW 17:51:10 10° NNW
CZ-2C R/B 3.8 17:49:48 53° NW 17:49:48 53° NW 17:54:22 10° NNW
H-2A R/B 4.0 18:09:15 22° W 18:09:28 22° W 18:13:18 10° NW
CENTAUR R/B 4.1 22:52:42 31° NE 22:52:42 31° NE 22:56:06 10° NE
BREEZE-M DEB (TANK) 4.4 23:21:20 54° NNE 23:21:20 54° NNE 23:33:32 10° ENE
Cosmos 2369 Rocket 4.0 23:26:48 24° N 23:26:48 24° N 23:29:06 10° NNE
BREEZE-M DEB (TANK) 4.3 23:41:45 39° E 23:41:45 39° E 23:48:25 10° ESE
BREEZE-M DEB (TANK) 4.5 23:41:45 61° W 23:43:35 73° NNW 23:48:52 10° ENE
CZ-2D R/B 4.4 23:41:24 10° N 23:42:11 14° NNW 23:42:11 14° NNW
Cosmos 2026 Rocket 4.4 23:50:55 58° ESE 23:51:15 59° E 23:57:29 10° NNE
Cosmos 1943 Rocket 4.0 23:54:01 20° NNW 23:54:01 20° NNW 23:56:12 10° N
